Location: Samoth
(37.3328°N, 88.7876°W)
Time: 12:37:52
(UTC+00:00)

ISS - Visible Passes

Search period start: 21 September 2021 00:00
Search period end: 01 October 2021 00:00
Orbit: 419 x 423 km, 51.6° (Epoch: 21 September)

Date Brightness Start Highest point End Pass type
(mag) Time Alt. Az. Time Alt. Az. Time Alt. Az.
21 Sep -1.0 01:06:05 10° WNW 01:08:20 17° NNW 01:10:36 10° NNE visible
22 Sep -1.5 00:18:31 10° W 00:21:16 23° NNW 00:24:02 10° NNE visible
24 Sep -0.9 00:23:16 10° NW 00:24:43 12° NNW 00:26:11 10° N visible
29 Sep -1.0 01:22:01 10° N 01:22:46 11° NNE 01:22:46 11° NNE visible
30 Sep -0.4 02:10:35 10° NNW 02:10:37 10° NNW 02:10:37 10° NNW visible
